Вернуться в каталог

ELEKTRO

GOMS

АктивенПогодаGEO
NORAD 23327·PAYLOAD·🇷🇺 Russia

Запущен Oct 31, 1994 с Baikonur Cosmodrome

Loading…

TLE

СвежийSource: Space-Track

Эпоха: Sep 13, 2026, 17:40 UTC

1 23327U 94069A   26256.73618120 -.00000186  00000-0  00000-0 0  9990
2 23327  14.4465 348.6050 0009482 266.0714  85.2700  1.00274794116754

Отслеживайте ELEKTRO в реальном времени с AllMySat

Download on the App Store